Regional Weather Roundup
Issued by NWS

Home | Current Version | Previous Version | Graphics & Text | Print | Product List | Glossary On
Versions: 1 2 3 4 5 6 7 8 9 10 11 12 13 14 15 16 17 18 19 20 21 22 23 24 25 26 27 28 29 30 31 32 33 34 35 36 37 38 39 40 41 42 43 44 45 46 47 48 49 50
000
ASUS43 KIND 042359
RWRIN

WEATHER ROUNDUP FOR INDIANA
NATIONAL WEATHER SERVICE INDIANAPOLIS IN
800 PM EDT TUE AUG 04 2015

NOTE: "FAIR" INDICATES FEW OR NO CLOUDS BELOW 12,000 FEET WITH NO
SIGNIFICANT WEATHER AND/OR OBSTRUCTIONS TO VISIBILITY.

* - STATION DOES NOT REPORT WEATHER SUCH AS PRECIPITATION OR FOG.

+ - STATION NOT QUALITY CONTROLLED BY THE NATIONAL WEATHER SERVICE.
    USE DATA WITH CAUTION...ESPECIALLY DEWPOINT AND RELATIVE
    HUMIDITY OBSERVATIONS.

INZ001>003-010>013-019-020-050100-
NORTHWEST INDIANA

CITY           SKY/WX    TMP DP  RH WIND       PRES   REMARKS
GARY /AIRPORT/ PTSUNNY   77  57  50 NE8       29.95S
KNOX *+        MOCLDY    73  55  53 W8        29.93F
MONTICELLO +   PTCLDY    76  62  60 W3        29.95S
6HR MIN TEMP:  76; 6HR MAX TEMP:  80;


$$

LMZ046-743>745-050100-
SOUTHERN LAKE MICHIGAN

STATION/POSITION TIME  TEMP    WIND        PRES    WAVE
                       AIR SEA DIR/SP/G            HT
                 (UTC) (F)     (DEG/KT/KT) (MB)    (FT)
BURNS HARBOR     2300   77      60/  6/  8 1014.6F
MICHIGAN CITY    2300   75      20/  3/  4   N/A
5NW MICH CITY    2300   76 76   70/  4/  6   N/A     1

$$

INZ004-005-014>016-021>024-050100-
NORTH CENTRAL INDIANA

CITY           SKY/WX    TMP DP  RH WIND       PRES   REMARKS
ELKHART        MOCLDY    75  52  43 NW3       29.96F
GOSHEN         MOCLDY    74  58  57 NW6       29.95F
6HR MIN TEMP:  74; 6HR MAX TEMP:  79;

SOUTH BEND     MOCLDY    76  55  48 N8        29.96F
6HR MIN TEMP:  76; 6HR MAX TEMP:  81;

WARSAW +       MOCLDY    73  59  60 W5        29.95S

$$

INZ006>009-017-018-025>027-050100-
NORTHEAST INDIANA

CITY           SKY/WX    TMP DP  RH WIND       PRES   REMARKS
ANGOLA *+      CLEAR     73  64  73 CALM      29.96S
FORT WAYNE     MOCLDY    76  61  59 W5        29.96F
6HR MIN TEMP:  76; 6HR MAX TEMP:  81;


$$

INZ028-029-035-036-043>045-051>053-050100-
WEST CENTRAL INDIANA

CITY           SKY/WX    TMP DP  RH WIND       PRES   REMARKS
CRAWFORDSVL +  MOCLDY    73  59  61 CALM        N/A
6HR MIN TEMP:  73; 6HR MAX TEMP:  78;

GREENCASTLE +  PTCLDY    72  59  64 CALM      30.00R
LAFAYETTE      MOCLDY    75  61  61 NW6       29.96R
6HR MIN TEMP:  75; 6HR MAX TEMP:  80;

TERRE HAUTE    MOCLDY    77  64  64 CALM      29.99R
6HR MIN TEMP:  77; 6HR MAX TEMP:  82;


$$

INZ030>032-037>040-046>048-054>057-064-065-050100-
CENTRAL INDIANA

CITY           SKY/WX    TMP DP  RH WIND       PRES   REMARKS
FRANKFORT +    PTCLDY    77  63  62 CALM      30.00R
6HR MIN TEMP:  76; 6HR MAX TEMP:  81;

GREENWOOD *+   PTCLDY    77  54  44 NW5       29.99R
INDIANAPOLIS   MOCLDY    77  56  48 NW7       29.98R
6HR MIN TEMP:  77; 6HR MAX TEMP:  83;

-EAGLE CREEK   PTCLDY    77  59  53 CALM      29.98R
6HR MIN TEMP:  77; 6HR MAX TEMP:  82;

KOKOMO *+      PTCLDY    77  59  53 W6        29.97R
6HR MIN TEMP:  77; 6HR MAX TEMP:  81;

MT COMFORT *+  PTCLDY    75  59  57 W3        30.00R
SHELBYVILLE    PTCLDY    79  61  53 CALM      29.98R
6HR MIN TEMP:  79; 6HR MAX TEMP:  83;


$$

INZ033-034-041-042-049-050-058-059-050100-
EAST CENTRAL INDIANA

CITY           SKY/WX    TMP DP  RH WIND       PRES   REMARKS
MUNCIE         PTCLDY    72  59  63 NW5       29.98S
6HR MIN TEMP:  72; 6HR MAX TEMP:  79;


$$

INZ060-061-067>069-081>083-085>088-050100-
SOUTHWEST INDIANA

CITY           SKY/WX    TMP DP  RH WIND       PRES   REMARKS
EVANSVILLE     RAIN      70  66  87 E5        30.01R FOG
6HR MIN TEMP:  70; 6HR MAX TEMP:  93; 6HR PCP:  0.13;

HUNTINGBURG *+ CLOUDY    70  66  88 NE7       30.01F
6HR MIN TEMP:  70; 6HR MAX TEMP:  88; 6HR PCP:  0.01;


$$

INZ062-063-066-070>080-084-089>092-050100-
SOUTH CENTRAL AND SOUTHEAST INDIANA

CITY           SKY/WX    TMP DP  RH WIND       PRES   REMARKS
BLOOMINGTON    MOCLDY    76  65  68 CALM      30.00R
6HR MIN TEMP:  76; 6HR MAX TEMP:  81;

MADISON *+     MOCLDY    77  68  73 CALM      30.02R
SEYMOUR +      MOCLDY    79  68  69 CALM      29.99R

$$




USA.gov is the U.S. government's official web portal to all federal, state and local government web resources and services.